FW7644 Weather Reports


time (UTC)temp
F
wind
direction
speed
knots
gust
knots
rain 1hr
in
rain 24hr
in
rain mn
in
humidity
%
barometer
mb
20260505152926 82 0.0 0.0 0.00 0.00 0.00 48 1023.6
20260505152424 84 0.0 0.0 0.00 0.00 0.00 49 1023.6
20260505151923 82 0.0 0.0 0.00 0.00 0.00 53 1023.6
20260505151421 84 0.0 0.0 0.00 0.00 0.00 53 1023.7
20260505150919 81 0.0 0.0 0.00 0.00 0.00 58 1023.8
20260505150418 82 0.0 0.0 0.00 0.00 0.00 56 1023.8
20260505140357 79 0.0 0.0 0.00 0.00 0.00 62 1024.3
20260505124828 77 0.0 0.0 0.00 0.02 0.00 70 1024.2
20260505124325 76 0.0 0.0 0.00 0.02 0.00 72 1024.2
20260505123823 74 0.0 0.0 0.00 0.02 0.00 75 1024.1
20260505123321 74 0.0 0.0 0.00 0.02 0.00 76 1024.0
20260505122818 73 0.0 0.0 0.00 0.02 0.00 75 1024.0
20260505122316 73 0.0 0.0 0.00 0.02 0.00 76 1023.9
20260505121814 74 0.0 0.0 0.00 0.02 0.00 75 1023.9
20260505121311 74 0.0 0.0 0.00 0.02 0.00 72 1023.9
20260505120809 75 0.0 0.0 0.00 0.02 0.00 71 1023.9
20260505120307 74 0.0 0.0 0.00 0.02 0.00 72 1023.9
20260505115805 73 0.0 0.0 0.00 0.02 0.00 74 1023.8
20260505115305 73 0.0 0.0 0.00 0.02 0.00 74 1023.8
20260505114801 73 0.0 0.0 0.00 0.02 0.00 73 1023.8
20260505114259 72 0.0 0.0 0.00 0.02 0.00 81 1023.8
20260505113757 68 0.0 0.0 0.00 0.02 0.00 87 1023.7
20260505113256 69 0.0 0.0 0.00 0.02 0.00 87 1023.6
20260505112754 67 0.0 0.0 0.00 0.02 0.00 91 1023.6
20260505112252 66 0.0 0.0 0.00 0.02 0.00 96 1023.5
20260505111750 65 0.0 0.0 0.00 0.02 0.00 99 1023.5
20260505111249 65 0.0 0.0 0.00 0.02 0.00 99 1023.4
20260505110747 64 0.0 0.0 0.00 0.02 0.00 99 1023.4
20260505110245 65 0.0 0.0 0.00 0.02 0.00 99 1023.4
20260505101730 53 0.0 0.0 0.00 0.02 0.00 99 1022.8
20260505101228 52 0.0 0.0 0.00 0.02 0.00 99 1022.8
20260505100727 52 0.0 0.0 0.00 0.02 0.00 99 1022.7
20260505100225 52 0.0 0.0 0.00 0.02 0.00 99 1022.7
20260505095723 52 0.0 0.0 0.00 0.02 0.00 99 1022.6
20260505095222 52 0.0 0.0 0.00 0.02 0.00 99 1022.5
20260505094720 52 0.0 0.0 0.00 0.02 0.00 99 1022.4
20260505094219 52 0.0 0.0 0.00 0.02 0.00 99 1022.3
20260505093717 52 0.0 0.0 0.00 0.02 0.00 99 1022.3
20260505093216 52 0.0 0.0 0.00 0.02 0.00 99 1022.2
20260505092714 52 0.0 0.0 0.00 0.02 0.00 99 1022.2
20260505092212 52 0.0 0.0 0.00 0.02 0.00 99 1022.1
20260505091711 52 0.0 0.0 0.00 0.02 0.00 99 1022.1
20260505091209 52 0.0 0.0 0.00 0.02 0.00 99 1022.0
20260505090708 52 0.0 0.0 0.00 0.02 0.00 99 1021.9
20260505090206 52 0.0 0.0 0.00 0.02 0.00 99 1021.8
20260505085704 52 0.0 0.0 0.00 0.02 0.00 99 1021.8
20260505085202 52 0.0 0.0 0.00 0.02 0.00 99 1021.7
20260505084701 52 0.0 0.0 0.00 0.02 0.00 99 1021.7
20260505084159 52 0.0 0.0 0.00 0.02 0.00 99 1021.7
20260505083658 52 0.0 0.0 0.00 0.02 0.00 99 1021.6
20260505083156 52 0.0 0.0 0.00 0.02 0.00 99 1021.5
20260505082654 52 0.0 0.0 0.00 0.02 0.00 99 1021.5
20260505082153 52 0.0 0.0 0.00 0.02 0.00 99 1021.5
20260505081651 52 0.0 0.0 0.00 0.02 0.00 99 1021.6
20260505081149 52 0.0 0.0 0.00 0.02 0.00 99 1021.5
20260505080647 52 0.0 0.0 0.00 0.02 0.00 99 1021.5
20260505080146 52 0.0 0.0 0.00 0.02 0.00 99 1021.5
20260505075644 53 0.0 0.0 0.00 0.02 0.00 99 1021.4
20260505075142 53 0.0 0.0 0.00 0.02 0.00 99 1021.4
20260505074641 53 0.0 0.0 0.00 0.02 0.00 99 1021.4
20260505074139 52 0.0 0.0 0.00 0.02 0.00 99 1021.4
20260505073637 53 0.0 0.0 0.00 0.02 0.00 99 1021.4
20260505073135 53 0.0 0.0 0.00 0.02 0.00 99 1021.4
20260505072634 53 0.0 0.0 0.00 0.02 0.00 99 1021.4
20260505072132 53 0.0 0.0 0.00 0.02 0.00 99 1021.4
20260505071631 53 0.0 0.0 0.00 0.02 0.00 99 1021.4
20260505071129 53 0.0 0.0 0.00 0.02 0.00 99 1021.5
20260505070628 53 0.0 0.0 0.00 0.02 0.00 99 1021.5
20260505070126 53 0.0 0.0 0.00 0.02 0.00 99 1021.5
20260505065625 53 0.0 0.0 0.00 0.02 0.00 99 1021.5
20260505065123 53 0.0 0.0 0.00 0.02 0.00 99 1021.5
20260505064622 53 0.0 0.0 0.00 0.02 0.00 99 1021.5
20260505064121 53 0.0 0.0 0.00 0.02 0.00 99 1021.6
20260505063619 53 0.0 0.0 0.00 0.02 0.00 99 1021.6
20260505063118 53 0.0 0.0 0.00 0.02 0.00 99 1021.6
20260505062616 53 0.0 0.0 0.00 0.02 0.00 99 1021.6
20260505062114 53 0.0 0.0 0.00 0.02 0.00 99 1021.6
20260505061613 54 0.0 0.0 0.00 0.02 0.00 99 1021.6
20260505061111 54 0.0 0.0 0.00 0.02 0.00 99 1021.6
20260505060610 54 0.0 0.0 0.00 0.02 0.00 99 1021.7
20260505060108 54 0.0 0.0 0.00 0.02 0.00 99 1021.7
20260505055606 54 0.0 0.0 0.00 0.02 0.00 99 1021.7
20260505055105 54 0.0 0.0 0.00 0.02 0.00 99 1021.8
20260505054603 54 0.0 0.0 0.00 0.02 0.00 99 1021.8
20260505054101 54 0.0 0.0 0.00 0.02 0.00 99 1021.8
20260505053559 55 0.0 0.0 0.00 0.02 0.00 99 1021.9
20260505053058 55 0.0 0.0 0.00 0.02 0.00 99 1022.0
20260505052557 55 0.0 0.0 0.00 0.02 0.00 99 1022.0
20260505052055 55 0.0 0.0 0.00 0.02 0.00 99 1022.1
20260505051554 55 0.0 0.0 0.00 0.02 0.00 99 1022.0
20260505051052 55 0.0 0.0 0.00 0.02 0.00 99 1022.2
20260505050550 55 0.0 0.0 0.00 0.02 0.00 99 1022.2
20260505041535 56 0.0 0.0 0.00 0.02 0.00 99 1022.6
20260505041033 56 0.0 0.0 0.00 0.02 0.00 99 1022.7
20260505040532 56 0.0 0.0 0.00 0.02 0.00 99 1022.7
20260505040030 56 0.0 0.0 0.00 0.02 0.00 99 1022.8
20260505035529 56 0.0 0.0 0.00 0.02 0.00 99 1022.8
20260505035027 57 0.0 0.0 0.00 0.02 0.00 99 1022.9
20260505034525 57 0.0 0.0 0.00 0.02 0.00 99 1023.0
20260505034024 57 0.0 0.0 0.00 0.02 0.00 99 1023.0
20260505033522 57 0.0 0.0 0.00 0.02 0.00 99 1023.1
20260505033020 57 0.0 0.0 0.00 0.02 0.00 99 1023.1
20260505032518 57 0.0 0.0 0.00 0.02 0.00 99 1023.0
20260505032017 57 0.0 0.0 0.00 0.02 0.00 99 1023.0
20260505031515 57 0.0 0.0 0.00 0.02 0.00 99 1023.0
20260505031014 57 0.0 0.0 0.00 0.02 0.00 99 1023.0
20260505030513 57 0.0 0.0 0.00 0.02 0.00 99 1023.0
20260505030011 57 0.0 0.0 0.00 0.02 0.00 99 1023.0
20260505025509 57 0.0 0.0 0.00 0.02 0.02 99 1023.0
20260505025007 57 0.0 0.0 0.00 0.02 0.02 99 1023.0
20260505024505 57 0.0 0.0 0.00 0.02 0.02 99 1023.0
20260505024004 57 0.0 0.0 0.00 0.02 0.02 99 1022.9
20260505023502 57 0.0 0.0 0.00 0.02 0.02 99 1022.9
20260505023001 58 0.0 0.0 0.00 0.02 0.02 99 1022.9
20260505022459 58 0.0 0.0 0.00 0.02 0.02 99 1022.9
20260505021957 57 0.0 0.0 0.00 0.02 0.02 99 1022.8
20260505021456 57 0.0 0.0 0.00 0.02 0.02 99 1022.8
20260505020954 57 0.0 0.0 0.00 0.02 0.02 99 1022.8
20260505020452 58 0.0 0.0 0.00 0.02 0.02 99 1022.8
20260505015951 58 0.0 0.0 0.00 0.02 0.02 99 1022.8
20260505015449 58 0.0 0.0 0.00 0.02 0.02 99 1022.8
20260505014947 58 0.0 0.0 0.00 0.02 0.02 99 1022.8
20260505014445 58 0.0 0.0 0.00 0.02 0.02 99 1022.8
20260505013944 58 0.0 0.0 0.00 0.02 0.02 99 1022.8
20260505013442 58 0.0 0.0 0.00 0.02 0.02 99 1022.8
20260505012940 59 0.0 0.0 0.00 0.02 0.02 99 1022.7
20260505012439 59 0.0 0.0 0.00 0.02 0.02 99 1022.7
20260505011937 59 0.0 0.0 0.00 0.02 0.02 99 1022.7
20260505011435 59 0.0 0.0 0.00 0.02 0.02 99 1022.7
20260505010933 59 0.0 0.0 0.00 0.02 0.02 99 1022.6
20260505010431 59 0.0 0.0 0.00 0.02 0.02 99 1022.6
20260505005929 59 0.0 0.0 0.00 0.02 0.02 99 1022.5
20260505005427 59 0.0 0.0 0.00 0.02 0.02 99 1022.4
20260505004925 59 0.0 0.0 0.00 0.02 0.02 99 1022.4
20260505004423 59 0.0 0.0 0.00 0.02 0.02 99 1022.3
20260505003920 59 0.0 0.0 0.00 0.02 0.02 99 1022.2
20260505003418 59 0.0 0.0 0.00 0.02 0.02 99 1022.1
20260505002915 59 0.0 0.0 0.00 0.02 0.02 99 1022.0
20260505002414 59 0.0 0.0 0.00 0.02 0.02 99 1022.0
20260505001912 59 0.0 0.0 0.00 0.02 0.02 99 1021.9
20260505001410 59 0.0 0.0 0.00 0.02 0.02 99 1022.0
20260505000907 59 0.0 0.0 0.00 0.02 0.02 99 1022.0
20260505000406 59 0.0 0.0 0.00 0.02 0.02 99 1022.1
20260504235903 59 0.0 0.0 0.00 0.02 0.02 99 1022.1
20260504235400 60 0.0 0.0 0.00 0.02 0.02 99 1022.1
20260504234858 59 0.0 0.0 0.00 0.02 0.02 99 1022.0
20260504234357 59 0.0 0.0 0.00 0.02 0.02 99 1022.0
20260504233855 59 0.0 0.0 0.00 0.02 0.02 99 1021.9
20260504233353 59 0.0 0.0 0.00 0.02 0.02 99 1021.8
20260504232852 59 0.0 0.0 0.00 0.02 0.02 99 1021.7
20260504232350 59 0.0 0.0 0.00 0.02 0.02 99 1021.7
20260504231848 59 0.0 0.0 0.00 0.02 0.02 99 1021.7
20260504231347 59 0.0 0.0 0.00 0.02 0.02 99 1021.7
20260504230845 59 0.0 0.0 0.00 0.02 0.02 99 1021.7
20260504230343 59 0.0 0.0 0.00 0.02 0.02 99 1021.7
20260504225841 59 0.0 0.0 0.00 0.02 0.02 99 1021.6
20260504225339 59 0.0 0.0 0.00 0.02 0.02 99 1021.6
20260504224838 59 0.0 0.0 0.00 0.02 0.02 99 1021.5
20260504224336 59 0.0 0.0 0.00 0.02 0.02 99 1021.5
20260504223834 59 0.0 0.0 0.00 0.02 0.02 99 1021.5
20260504223332 59 0.0 0.0 0.00 0.02 0.02 99 1021.6
20260504222830 59 0.0 0.0 0.00 0.02 0.02 99 1021.4
20260504222328 59 0.0 0.0 0.00 0.02 0.02 99 1021.4
20260504221827 59 0.0 0.0 0.00 0.02 0.02 99 1021.3
20260504221325 59 0.0 0.0 0.00 0.02 0.02 99 1021.2
20260504220823 59 0.0 0.0 0.00 0.02 0.02 99 1021.2
20260504220321 59 0.0 0.0 0.00 0.02 0.02 99 1021.2
20260504215820 59 0.0 0.0 0.00 0.02 0.02 99 1021.0
20260504215318 60 0.0 0.0 0.00 0.02 0.02 99 1020.9
20260504214816 60 0.0 0.0 0.00 0.02 0.02 99 1020.9
20260504214314 60 0.0 0.0 0.00 0.02 0.02 99 1020.8
20260504213812 60 0.0 0.0 0.00 0.02 0.02 99 1020.8
20260504213311 60 0.0 0.0 0.00 0.02 0.02 99 1020.8
20260504212809 61 0.0 0.0 0.00 0.02 0.02 99 1020.8
20260504212307 61 0.0 0.0 0.00 0.02 0.02 99 1020.7
20260504211805 61 0.0 0.0 0.00 0.02 0.02 99 1020.7
20260504211303 61 0.0 0.0 0.00 0.02 0.02 99 1020.7
20260504210802 61 0.0 0.0 0.00 0.02 0.02 99 1020.7
20260504210300 62 0.0 0.0 0.00 0.02 0.02 99 1020.6
20260504205758 62 0.0 0.0 0.00 0.02 0.02 98 1020.5
20260504205256 63 0.0 0.0 0.00 0.02 0.02 97 1020.5
20260504204755 63 0.0 0.0 0.00 0.02 0.02 96 1020.4
20260504204254 63 0.0 0.0 0.00 0.02 0.02 94 1020.3
20260504203752 64 0.0 0.0 0.00 0.02 0.02 93 1020.3
20260504203250 64 0.0 0.0 0.00 0.02 0.02 91 1020.2
20260504202748 64 0.0 0.0 0.00 0.02 0.02 90 1020.2
20260504202246 65 0.0 0.0 0.00 0.02 0.02 87 1020.2
20260504201744 66 0.0 0.0 0.00 0.02 0.02 86 1020.2
20260504201242 65 0.0 0.0 0.00 0.02 0.02 86 1020.1
20260504200740 66 0.0 0.0 0.00 0.02 0.02 85 1020.0
20260504200239 66 0.0 0.0 0.00 0.02 0.02 83 1020.0
20260504195737 67 0.0 0.0 0.00 0.02 0.02 80 1020.0
20260504195235 68 0.0 0.0 0.00 0.02 0.02 77 1020.0
20260504194733 70 0.0 0.0 0.00 0.02 0.02 74 1020.0
20260504194232 68 0.0 0.0 0.00 0.02 0.02 80 1020.1
20260504193730 66 0.0 0.0 0.00 0.02 0.02 83 1020.0
20260504193228 66 0.0 0.0 0.00 0.02 0.02 83 1019.9
20260504192726 67 0.0 0.0 0.00 0.02 0.02 81 1020.0
20260504192225 67 0.0 0.0 0.00 0.02 0.02 80 1020.0
20260504191723 67 0.0 0.0 0.00 0.02 0.02 78 1019.9
20260504191221 69 0.0 0.0 0.00 0.02 0.02 73 1019.9
20260504190719 73 0.0 0.0 0.00 0.02 0.02 64 1019.9
20260504185716 70 0.0 0.0 0.00 0.02 0.02 72 1020.0
20260504185213 67 0.0 0.0 0.00 0.02 0.02 79 1020.1
20260504184712 67 0.0 0.0 0.00 0.02 0.02 78 1020.2
20260504184210 67 0.0 0.0 0.00 0.02 0.02 78 1020.3
20260504183708 68 0.0 0.0 0.00 0.02 0.02 77 1020.3
20260504183206 68 0.0 0.0 0.00 0.02 0.02 76 1020.3
20260504182704 68 0.0 0.0 0.00 0.02 0.02 74 1020.2
20260504182203 69 0.0 0.0 0.00 0.02 0.02 71 1020.2
20260504181701 70 0.0 0.0 0.00 0.02 0.02 70 1020.2
20260504181159 70 0.0 0.0 0.00 0.02 0.02 71 1020.1
20260504180658 70 0.0 0.0 0.00 0.02 0.02 72 1020.1
20260504180156 71 0.0 0.0 0.00 0.02 0.02 69 1020.1
20260504175654 69 0.0 0.0 0.00 0.02 0.02 73 1020.0
20260504175152 71 0.0 0.0 0.00 0.02 0.02 70 1020.2
20260504174650 70 0.0 0.0 0.00 0.02 0.02 76 1020.2
20260504174148 67 0.0 0.0 0.00 0.02 0.02 82 1020.3
20260504173646 67 0.0 0.0 0.00 0.02 0.02 82 1020.5
20260504173144 66 0.0 0.0 0.00 0.02 0.02 83 1020.7
20260504172643 65 0.0 0.0 0.00 0.02 0.02 86 1020.8
20260504172141 64 0.0 0.0 0.00 0.02 0.02 87 1020.9
20260504171639 64 0.0 0.0 0.00 0.02 0.02 87 1020.9
20260504171138 64 0.0 0.0 0.00 0.02 0.02 88 1021.0
20260504170636 64 0.0 0.0 0.00 0.02 0.02 88 1021.1
20260504170134 64 0.0 0.0 0.00 0.02 0.02 86 1021.2
20260504160113 61 0.0 0.0 0.00 0.02 0.02 95 1022.4